Clarion, IA

11:16 AM CDT on March 29, 2017 (GMT -0500)
Clarion Municipal

Weather History for KCAV - December, 2013

Change the Weather History Date:

Sunday, December 8, 2013

  Actual Average Record
Temperature  
Mean Temperature 12 °F -  
Max Temperature 17 °F 30 °F 60 °F (1984)
Min Temperature 8 °F 11 °F -16 °F (1976)
Degree Days  
Heating Degree Days 52    
Moisture  
Dew Point 8 °F    
Average Humidity 80    
Maximum Humidity 93    
Minimum Humidity 62    
Precipitation  
Precipitation 0.00 in - - ()
Sea Level Pressure  
Sea Level Pressure 30.16 in    
Wind  
Wind Speed 10 mph (ESE)    
Max Wind Speed 18 mph    
Max Gust Speed 24 mph    
Visibility 4 miles    
Events Rain , Snow    
Averages and records for this station are not official NWS values.
T = Trace of Precipitation, MM = Missing Value Source: NWS Daily Summary

Daily Weather History Graph

Daily Weather History Graph

Search for Another Location

Airport or City:

Trip Planner

Search our weather history database for the weather conditions in past years. The results will help you decide how hot, cold, wet, or windy it might be!

Date:

Astronomy

Dec. 08, 2013 Rise Set
Actual Time 7:33 AM CST 4:41 PM CST
Civil Twilight 7:01 AM CST 5:13 PM CST
Nautical Twilight 6:25 AM CST 5:48 PM CST
Astronomical Twilight 5:51 AM CST 6:22 PM CST
Moon 11:47 AM CST (12/8) 11:38 PM CST (12/8)
Length of Visible Light 10h 12m
Length of Day
9h 08m
Waxing Crescent, 40% of the Moon is Illuminated
Dec 8
Waxing Crescent
Dec 9
First Quarter
Dec 17
Full
Dec 25
Last Quarter
Jan 1
New

Hourly Weather History & Observations

Time (CST) Temp. Windchill Dew Point Humidity Pressure Visibility Wind Dir Wind Speed Gust Speed Precip Events Conditions
12:15 AM 8.6 °F -5.5 °F -2.2 °F 62% 30.49 in 10.0 mi ESE 10.4 mph - N/A   Overcast
12:35 AM 8.6 °F -3.7 °F -0.4 °F 67% 30.47 in 9.0 mi ESE 8.1 mph - N/A   Overcast
12:55 AM 8.6 °F -3.7 °F -0.4 °F 67% 30.46 in 7.0 mi ESE 8.1 mph - N/A Snow Light Snow
1:15 AM 8.6 °F -5.5 °F -0.4 °F 67% 30.43 in 5.0 mi ESE 10.4 mph - N/A Snow Light Snow
1:35 AM 8.6 °F -3.7 °F 1.4 °F 73% 30.42 in 3.0 mi ESE 8.1 mph - N/A Snow Light Snow
1:55 AM 8.6 °F -5.5 °F 1.4 °F 73% 30.42 in 3.0 mi ESE 10.4 mph - N/A Snow Light Snow
2:15 AM 8.6 °F -5.5 °F 1.4 °F 73% 30.41 in 3.0 mi ESE 10.4 mph - N/A Snow Light Snow
2:35 AM 8.6 °F -5.5 °F 3.2 °F 79% 30.40 in 2.5 mi ESE 10.4 mph - N/A Snow Light Snow
2:55 AM 8.6 °F -6.3 °F 3.2 °F 79% 30.38 in 3.0 mi ESE 11.5 mph - N/A Snow Light Snow
3:15 AM 8.6 °F -5.5 °F 3.2 °F 79% 30.37 in 2.5 mi ESE 10.4 mph - N/A Snow Light Snow
3:35 AM 8.6 °F -6.3 °F 3.2 °F 79% 30.36 in 3.0 mi ESE 11.5 mph - N/A Snow Light Snow
3:55 AM 8.6 °F -5.5 °F 3.2 °F 79% 30.35 in 3.0 mi ESE 10.4 mph - N/A Snow Light Snow
4:15 AM 8.6 °F -6.3 °F 1.4 °F 73% 30.34 in 6.0 mi ESE 11.5 mph - N/A   Haze
4:35 AM 8.6 °F -6.3 °F 1.4 °F 73% 30.33 in 4.0 mi ESE 11.5 mph - N/A Snow Light Snow
4:55 AM 10.4 °F -4.1 °F 3.2 °F 73% 30.33 in 3.0 mi ESE 11.5 mph - N/A Snow Light Snow
5:15 AM 10.4 °F -4.1 °F 3.2 °F 73% 30.31 in 2.5 mi ESE 11.5 mph - N/A Snow Light Snow
5:35 AM 10.4 °F -4.8 °F 3.2 °F 73% 30.30 in 3.0 mi ESE 12.7 mph - N/A Snow Light Snow
5:55 AM 10.4 °F -5.4 °F 5.0 °F 79% 30.29 in 3.0 mi ESE 13.8 mph - N/A Rain Light Freezing Rain
6:15 AM 10.4 °F -5.4 °F 5.0 °F 79% 30.28 in 3.0 mi ESE 13.8 mph - N/A Rain Light Freezing Rain
6:35 AM 10.4 °F -3.3 °F 5.0 °F 79% 30.26 in 3.0 mi ESE 10.4 mph 19.6 mph N/A Rain Light Freezing Rain
6:55 AM 10.4 °F -6.6 °F 5.0 °F 79% 30.25 in 7.0 mi ESE 16.1 mph - N/A   Overcast
7:15 AM 10.4 °F -4.1 °F 5.0 °F 79% 30.24 in 10.0 mi ESE 11.5 mph 20.7 mph N/A   Overcast
7:35 AM 10.4 °F -6.6 °F 3.2 °F 73% 30.24 in 10.0 mi ESE 16.1 mph - N/A   Overcast
7:55 AM 10.4 °F -4.8 °F 3.2 °F 73% 30.23 in 10.0 mi ESE 12.7 mph 18.4 mph N/A   Mostly Cloudy
8:15 AM 10.4 °F -4.8 °F 3.2 °F 73% 30.22 in 10.0 mi ESE 12.7 mph - N/A   Mostly Cloudy
8:35 AM 10.4 °F -6.0 °F 3.2 °F 73% 30.22 in 10.0 mi ESE 15.0 mph - N/A   Overcast
8:55 AM 12.2 °F -2.5 °F 3.2 °F 67% 30.22 in 10.0 mi ESE 12.7 mph 18.4 mph N/A   Scattered Clouds
9:15 AM 12.2 °F -3.7 °F 3.2 °F 67% 30.22 in 10.0 mi ESE 15.0 mph 20.7 mph N/A   Partly Cloudy
9:35 AM 12.2 °F -3.7 °F 3.2 °F 67% 30.21 in 10.0 mi ESE 15.0 mph - N/A   Mostly Cloudy
9:55 AM 12.2 °F -3.7 °F 5.0 °F 73% 30.20 in 1.8 mi ESE 15.0 mph 23.0 mph N/A Snow Light Snow
10:15 AM 12.2 °F -4.8 °F 6.8 °F 79% 30.19 in 1.5 mi ESE 17.3 mph 24.2 mph N/A Snow Light Snow
10:35 AM 12.2 °F -2.5 °F 6.8 °F 79% 30.19 in 0.8 mi ESE 12.7 mph 20.7 mph N/A Snow Light Snow
10:55 AM 12.2 °F -5.3 °F 8.6 °F 85% 30.18 in 0.8 mi ESE 18.4 mph - N/A Snow Light Snow
11:15 AM 14.0 °F -1.4 °F 8.6 °F 79% 30.16 in 0.8 mi ESE 15.0 mph - N/A Snow Light Snow
11:35 AM 14.0 °F -1.4 °F 8.6 °F 79% 30.15 in 0.5 mi ESE 15.0 mph - N/A Snow Light Snow
11:55 AM 14.0 °F -2.0 °F 8.6 °F 79% 30.13 in 1.0 mi ESE 16.1 mph - N/A Snow Light Snow
12:15 PM 14.0 °F -0.8 °F 10.4 °F 86% 30.11 in 0.8 mi ESE 13.8 mph - N/A Snow Light Snow
12:35 PM 14.0 °F -0.8 °F 10.4 °F 86% 30.10 in 0.8 mi ESE 13.8 mph - N/A Snow Light Snow
12:55 PM 15.8 °F 2.1 °F 10.4 °F 79% 30.09 in 1.0 mi ESE 12.7 mph - N/A Snow Light Snow
1:15 PM 15.8 °F 3.4 °F 10.4 °F 79% 30.08 in 1.0 mi ESE 10.4 mph 17.3 mph N/A Snow Light Snow
1:35 PM 15.8 °F 4.2 °F 12.2 °F 86% 30.07 in 1.0 mi ESE 9.2 mph 15.0 mph N/A Snow Light Snow
1:55 PM 15.8 °F 5.1 °F 12.2 °F 86% 30.06 in 1.0 mi ESE 8.1 mph 15.0 mph N/A Snow Light Snow
2:15 PM 15.8 °F 2.1 °F 10.4 °F 79% 30.05 in 2.5 mi ESE 12.7 mph - N/A Snow Light Snow
2:35 PM 15.8 °F 3.4 °F 12.2 °F 86% 30.03 in 2.5 mi ESE 10.4 mph - N/A Snow Light Snow
2:55 PM 15.8 °F 3.4 °F 12.2 °F 86% 30.03 in 2.0 mi ESE 10.4 mph - N/A Snow Light Snow
3:15 PM 17.6 °F 6.4 °F 12.2 °F 79% 30.02 in 2.5 mi ESE 9.2 mph - N/A Snow Light Snow
3:35 PM 17.6 °F 6.4 °F 12.2 °F 79% 30.02 in - ESE 9.2 mph - N/A Snow Light Snow
3:55 PM 17.6 °F 6.4 °F 12.2 °F 79% 30.02 in 4.0 mi SE 9.2 mph - N/A Snow Light Snow
4:15 PM 17.6 °F 8.2 °F 12.2 °F 79% 30.03 in 5.0 mi SE 6.9 mph - N/A Snow Light Snow
4:35 PM 17.6 °F 9.3 °F 12.2 °F 79% 30.03 in 4.0 mi SE 5.8 mph - N/A Snow Light Snow
4:55 PM 17.6 °F 12.3 °F 12.2 °F 79% 30.02 in 1.8 mi ESE 3.5 mph - N/A Snow Light Snow
5:15 PM 17.6 °F - 14.0 °F 86% 30.02 in 2.5 mi Calm Calm - N/A Snow Light Snow
5:35 PM 15.8 °F 10.2 °F 14.0 °F 93% 30.01 in 3.0 mi ENE 3.5 mph - N/A Snow Light Snow
5:55 PM 15.8 °F - 14.0 °F 93% 30.01 in 3.0 mi Calm Calm - N/A Snow Light Snow
6:15 PM 15.8 °F - 12.2 °F 86% 30.01 in 4.0 mi Calm Calm - N/A Snow Light Snow
6:35 PM 15.8 °F - 12.2 °F 86% 30.02 in 5.0 mi Calm Calm - N/A Snow Light Snow
6:55 PM 15.8 °F - 12.2 °F 86% 30.02 in 4.0 mi Calm Calm - N/A Snow Light Snow
7:15 PM 15.8 °F - 12.2 °F 86% 30.02 in 3.0 mi Calm Calm - N/A Snow Light Snow
7:35 PM 15.8 °F - 12.2 °F 86% 30.02 in 3.0 mi Calm Calm - N/A Snow Light Snow
7:55 PM 15.8 °F - 12.2 °F 86% 30.02 in 3.0 mi Calm Calm - N/A Snow Light Snow
8:15 PM 15.8 °F - 12.2 °F 86% 30.02 in 3.0 mi Calm Calm - N/A Snow Light Snow
8:35 PM 15.8 °F 10.2 °F 12.2 °F 86% 30.02 in 3.0 mi NW 3.5 mph - N/A Snow Light Snow
8:55 PM 15.8 °F 7.2 °F 12.2 °F 86% 30.02 in 3.0 mi WNW 5.8 mph - N/A Snow Light Snow
9:15 PM 15.8 °F 7.2 °F 12.2 °F 86% 30.02 in 3.0 mi NW 5.8 mph - N/A Snow Light Snow
9:35 PM 15.8 °F 5.1 °F 12.2 °F 86% 30.02 in 4.0 mi WNW 8.1 mph - N/A Snow Light Snow
9:55 PM 14.0 °F 2.9 °F 12.2 °F 93% 30.02 in 7.0 mi WNW 8.1 mph - N/A Snow Light Snow
10:15 PM 14.0 °F 0.5 °F 12.2 °F 93% 30.02 in 8.0 mi WNW 11.5 mph - N/A Snow Light Snow
10:35 PM 14.0 °F 2.0 °F 10.4 °F 86% 30.02 in 8.0 mi NW 9.2 mph - N/A Snow Light Snow
10:55 PM 14.0 °F 1.2 °F 10.4 °F 86% 30.01 in 7.0 mi NW 10.4 mph - N/A Snow Light Snow
11:15 PM 12.2 °F -0.2 °F 8.6 °F 85% 30.02 in 10.0 mi NW 9.2 mph - N/A Snow Light Snow
11:35 PM 10.4 °F -3.3 °F 6.8 °F 85% 30.03 in 10.0 mi WNW 10.4 mph - N/A   Mostly Cloudy
11:55 PM 8.6 °F -6.3 °F 6.8 °F 92% 30.04 in 10.0 mi WNW 11.5 mph - N/A   Clear